M9XDX-WX Weather Reports


Display with metric or nautical units.
time (UTC)temp
F
wind
direction
speed
MPH
gust
MPH
rain 1hr
in
rain 24hr
in
rain mn
in
humidity
%
barometer
mb
20260507144003 57 344 1.0 3.0 0.00 0.00 0.00 70 1013.4
20260507143003 57 318 1.0 2.0 0.00 0.00 0.00 68 1013.7
20260507142003 57 319 1.0 3.0 0.00 0.00 0.00 66 1013.6
20260507141003 58 324 1.0 2.0 0.00 0.00 0.00 63 1013.8
20260507140003 58 327 0.0 2.0 0.00 0.00 0.00 65 1013.5
20260507135003 57 329 0.0 2.0 0.00 0.00 0.00 69 1013.8
20260507134003 56 329 1.0 2.0 0.00 0.00 0.00 71 1013.9
20260507133003 56 327 1.0 3.0 0.00 0.00 0.00 72 1014.0
20260507132003 56 322 2.0 4.0 0.00 0.00 0.00 71 1014.1
20260507131003 57 6 1.0 3.0 0.00 0.00 0.00 67 1013.8
20260507130003 58 26 1.0 3.0 0.00 0.00 0.00 62 1013.8
20260507125003 58 26 1.0 3.0 0.00 0.00 0.00 60 1014.0
20260507124003 60 26 0.0 2.0 0.00 0.00 0.00 56 1013.9
20260507123003 58 26 1.0 2.0 0.00 0.00 0.00 60 1013.9
20260507122003 57 26 1.0 2.0 0.00 0.00 0.00 62 1014.1
20260507121003 57 26 1.0 3.0 0.00 0.00 0.00 63 1013.9
20260507120003 58 26 1.0 2.0 0.00 0.00 0.00 62 1014.2
20260507115003 58 20 2.0 4.0 0.00 0.00 0.00 62 1014.2
20260507114003 57 25 3.0 6.0 0.00 0.00 0.00 64 1014.2
20260507113003 57 26 3.0 4.0 0.00 0.00 0.00 63 1014.1
20260507112003 58 23 3.0 6.0 0.00 0.00 0.00 63 1014.4
20260507111003 57 24 3.0 6.0 0.00 0.00 0.00 67 1014.2
20260507110003 58 24 3.0 6.0 0.00 0.00 0.00 63 1014.2
20260507105003 57 24 3.0 6.0 0.00 0.00 0.00 66 1014.5
20260507104003 56 26 3.0 7.0 0.00 0.00 0.00 69 1014.6
20260507103003 56 21 2.0 4.0 0.00 0.00 0.00 69 1014.8
20260507102003 54 23 2.0 6.0 0.00 0.00 0.00 71 1015.0
20260507101218 54 25 3.0 6.0 0.00 0.00 0.00 72 1014.8
20260507100003 54 26 3.0 6.0 0.00 0.00 0.00 73 1014.8
20260507095003 53 25 4.0 8.0 0.00 0.00 0.00 75 1014.7
20260507094003 52 24 4.0 8.0 0.00 0.00 0.00 77 1014.8
20260507093003 51 25 4.0 7.0 0.00 0.00 0.00 79 1014.7
20260507092218 51 25 4.0 8.0 0.00 0.00 0.00 79 1014.8
20260507091003 50 26 4.0 7.0 0.00 0.00 0.00 79 1014.8
20260507090220 50 25 3.0 7.0 0.00 0.00 0.00 79 1014.9
20260507085003 50 25 3.0 7.0 0.00 0.00 0.00 81 1014.8
20260507084003 49 25 3.0 7.0 0.00 0.00 0.00 81 1015.1
20260507083003 49 24 3.0 6.0 0.00 0.00 0.00 82 1014.9
20260507082003 48 24 3.0 6.0 0.00 0.00 0.00 82 1015.0
20260507081003 48 25 2.0 6.0 0.00 0.00 0.00 83 1014.9
20260507080003 47 25 3.0 6.0 0.00 0.00 0.00 83 1015.0
20260507075003 47 21 2.0 6.0 0.00 0.00 0.00 83 1014.9
20260507074003 47 24 2.0 4.0 0.00 0.00 0.00 83 1015.2
20260507073003 47 27 3.0 8.0 0.00 0.00 0.00 83 1014.9
20260507072003 47 24 3.0 8.0 0.00 0.00 0.00 82 1014.5
20260507071003 47 26 3.0 8.0 0.00 0.00 0.00 83 1014.7
20260507070221 47 25 3.0 6.0 0.00 0.00 0.00 84 1014.6
20260507065217 47 24 2.0 4.0 0.00 0.00 0.00 85 1014.8
20260507064218 47 25 3.0 7.0 0.00 0.00 0.00 85 1014.5
20260507063219 46 25 3.0 7.0 0.00 0.00 0.00 85 1014.7
20260507062003 46 26 3.0 7.0 0.00 0.00 0.00 86 1014.5
20260507061003 46 26 3.0 7.0 0.00 0.00 0.00 86 1014.6
20260507060216 46 26 3.0 6.0 0.00 0.00 0.00 86 1014.5
20260507055217 46 25 3.0 6.0 0.00 0.00 0.00 86 1014.5
20260507054218 46 26 3.0 7.0 0.00 0.00 0.00 86 1014.3
20260507053003 46 26 3.0 6.0 0.00 0.00 0.00 86 1014.1
20260507052003 46 25 3.0 6.0 0.00 0.00 0.00 86 1014.4
20260507051003 46 25 3.0 6.0 0.00 0.00 0.00 86 1014.5
20260507050003 46 25 3.0 6.0 0.00 0.00 0.00 85 1014.1
20260507045003 46 24 2.0 4.0 0.00 0.00 0.00 84 1014.3
20260507044003 46 24 3.0 6.0 0.00 0.00 0.00 85 1014.4
20260507043003 46 24 2.0 6.0 0.00 0.00 0.00 84 1014.0
20260507042221 46 26 3.0 7.0 0.00 0.00 0.00 84 1014.2
20260507041003 46 26 3.0 7.0 0.00 0.00 0.00 84 1014.1
20260507040003 46 25 3.0 6.0 0.00 0.00 0.00 84 1014.1
20260507035003 46 26 3.0 7.0 0.00 0.00 0.00 84 1014.2
20260507034003 46 28 4.0 8.0 0.00 0.00 0.00 83 1014.1
20260507033221 46 28 4.0 7.0 0.00 0.00 0.00 83 1014.0
20260507032003 47 27 4.0 8.0 0.00 0.00 0.00 82 1014.3
20260507031217 47 26 3.0 7.0 0.00 0.00 0.00 82 1014.0
20260507030218 47 25 3.0 7.0 0.00 0.00 0.00 82 1014.3
20260507025003 47 20 3.0 6.0 0.00 0.00 0.00 82 1014.2
20260507024003 47 24 3.0 6.0 0.00 0.00 0.00 82 1014.1
20260507023003 47 26 3.0 7.0 0.00 0.00 0.00 82 1014.0
20260507022003 47 24 3.0 7.0 0.00 0.00 0.00 81 1014.1
20260507021003 47 25 3.0 6.0 0.00 0.00 0.00 81 1014.1
20260507020003 47 24 2.0 4.0 0.00 0.00 0.00 81 1014.1
20260507015003 48 24 2.0 4.0 0.00 0.00 0.00 80 1014.2
20260507014003 48 26 3.0 7.0 0.00 0.00 0.00 80 1014.0
20260507013003 48 26 3.0 7.0 0.00 0.00 0.00 79 1014.1
20260507012003 48 26 3.0 8.0 0.00 0.00 0.00 78 1014.0
20260507010220 48 28 4.0 8.0 0.00 0.00 0.00 77 1014.0
20260507005003 48 28 4.0 8.0 0.00 0.00 0.00 77 1014.5
20260507004003 48 28 4.0 8.0 0.00 0.00 0.00 76 1013.9
20260507003003 48 29 4.0 9.0 0.00 0.00 0.00 77 1014.1
20260507002003 48 29 4.0 10.0 0.00 0.00 0.00 78 1014.2
20260507001003 48 29 4.0 9.0 0.00 0.00 0.00 77 1014.3
20260507000003 48 29 4.0 8.0 0.00 0.00 0.00 77 1014.3
20260506235003 49 29 4.0 9.0 0.00 0.00 0.00 76 1014.1
20260506234003 49 28 4.0 9.0 0.00 0.00 0.00 75 1014.2
20260506233003 49 29 4.0 8.0 0.00 0.00 0.00 74 1014.2
20260506232003 50 30 5.0 9.0 0.00 0.00 0.00 73 1014.3
20260506231003 50 30 5.0 9.0 0.00 0.00 0.00 72 1014.2
20260506230003 50 29 4.0 10.0 0.00 0.00 0.00 70 1014.3
20260506225003 50 28 5.0 9.0 0.00 0.00 0.00 69 1014.3
20260506224003 51 29 5.0 10.0 0.00 0.00 0.00 67 1014.1
20260506223219 51 28 4.0 10.0 0.00 0.00 0.00 67 1014.1
20260506222220 51 28 4.0 9.0 0.00 0.00 0.00 66 1014.0
20260506221003 51 28 4.0 9.0 0.00 0.00 0.00 64 1014.0
20260506220003 51 26 4.0 8.0 0.00 0.00 0.00 64 1014.0
20260506215003 52 28 4.0 10.0 0.00 0.00 0.00 63 1013.7
20260506214003 52 29 5.0 9.0 0.00 0.00 0.00 61 1013.7
20260506213003 52 28 5.0 9.0 0.00 0.00 0.00 60 1013.8
20260506212003 52 21 3.0 10.0 0.00 0.00 0.00 62 1013.7
20260506211003 51 20 1.0 6.0 0.00 0.00 0.00 62 1013.7
20260506210003 52 15 1.0 2.0 0.00 0.00 0.00 63 1013.5
20260506205003 52 15 1.0 3.0 0.00 0.00 0.00 62 1013.4
20260506204003 51 22 1.0 3.0 0.00 0.00 0.00 60 1013.3
20260506203003 51 17 1.0 3.0 0.00 0.00 0.00 58 1013.3
20260506202003 52 2 1.0 2.0 0.00 0.00 0.00 56 1013.2
20260506201003 52 8 0.0 2.0 0.00 0.00 0.00 57 1012.9
20260506200003 52 8 1.0 2.0 0.00 0.00 0.00 58 1013.1
20260506195003 52 1 1.0 2.0 0.00 0.00 0.00 58 1012.7
20260506194003 53 6 1.0 4.0 0.00 0.00 0.00 58 1012.8
20260506193003 53 13 2.0 4.0 0.00 0.00 0.00 57 1013.0
20260506192003 53 15 2.0 6.0 0.00 0.00 0.00 56 1012.7
20260506191003 53 19 2.0 4.0 0.00 0.00 0.00 56 1012.8
20260506190003 54 15 2.0 6.0 0.00 0.00 0.00 55 1012.8
20260506185003 54 17 2.0 3.0 0.00 0.00 0.00 53 1012.7
20260506184003 55 21 2.0 6.0 0.00 0.00 0.00 52 1012.7
20260506183003 56 23 3.0 7.0 0.00 0.00 0.00 51 1012.7
20260506182003 56 22 3.0 7.0 0.00 0.00 0.00 49 1012.6
20260506181003 56 26 4.0 8.0 0.00 0.00 0.00 48 1012.6
20260506180003 57 25 4.0 10.0 0.00 0.00 0.00 51 1012.6
20260506175003 57 26 4.0 8.0 0.00 0.00 0.00 51 1012.5
20260506174003 57 28 4.0 9.0 0.00 0.00 0.00 50 1012.4
20260506173003 58 26 3.0 7.0 0.00 0.00 0.00 47 1012.6
20260506172003 58 24 4.0 7.0 0.00 0.00 0.00 48 1012.6
20260506171003 57 25 3.0 8.0 0.00 0.00 0.00 51 1012.2
20260506170003 57 25 4.0 9.0 0.00 0.00 0.00 48 1012.4
20260506165221 57 23 3.0 8.0 0.00 0.00 0.00 49 1012.3
20260506164216 57 24 3.0 8.0 0.00 0.00 0.00 49 1012.5
20260506163217 59 27 4.0 7.0 0.00 0.00 0.00 47 1012.2
20260506162003 59 29 4.0 9.0 0.00 0.00 0.00 48 1012.3
20260506161003 58 28 4.0 8.0 0.00 0.00 0.00 47 1012.4
20260506160003 59 30 5.0 9.0 0.00 0.00 0.00 47 1012.4
20260506155221 59 28 5.0 9.0 0.00 0.00 0.00 46 1012.2
20260506154217 58 29 5.0 9.0 0.00 0.00 0.00 48 1012.3
20260506153003 58 29 4.0 8.0 0.00 0.00 0.00 47 1012.1
20260506152003 57 31 5.0 9.0 0.00 0.00 0.00 49 1012.6
20260506151003 58 30 5.0 10.0 0.00 0.00 0.00 50 1012.6
20260506150003 58 33 5.0 11.0 0.00 0.00 0.00 50 1012.5
20260506145003 57 31 6.0 9.0 0.00 0.00 0.00 52 1012.7